FENGYUN 1C DEB, 30884

Orbit data source: Space-Track

FENGYUN 1C DEB, 30884 is space debris in SSO originally from a launch on Mon, 10 May 1999 UTC launched from the Taiyaun Space Center, China (TSC). Fengyun 1C debris stems from the Chinese weather satellite Fengyun-1C, which was intentionally destroyed by a Chinese anti-satellite missile in 2007. This event dramatically increased the amount of space debris, with thousands of trackable fragments posing hazards to satellites and human spaceflight. The Fengyun 1C debris cloud has become a focal point in discussions about space sustainability and the need for international regulations to prevent the creation of new debris.

Loading next visibility...
Identifier
30884, 1999-025AXW
Orbit
SSO
Country
Flag of CNCN / PRC
Related business
Manufacturer
Unknown
Mission
Spacecraft
Bus & Motor
Unknown
Mass
Unknown
Launch date (UTC)
1999-05-10 (27 years ago)
Launch vehicle
Unknown
Launch site
Taiyaun Space Center, China (TSC)
Object type
Payload
Rocket body
Debris
Shape & HBR
Unknown shape, 0.1 m
Radar Cross Section
Small (<0.1 m²)

Expand to show TLE details & history
Last TLE update: 1 day ago

TLE from 1 day ago
0 FENGYUN 1C DEB
1 30884U 99025AXW 26254.52021079  .00004787  00000-0  63672-3 0  9996
2 30884  98.8869 280.8146 0059991 196.9143 163.0067 14.79027472 26608
Epoch: 2026-09-11T12:29Z
TLE epoch observation values (Epoch: 2026-09-11T12:29:06.212Z)
Latitude
0.00005°
Longitude
102.99632°
Altitude
675.635 km
Speed
7.497 km/s
True Right ascension
18h 43m 15s
True Declination
0° 00' 00"
Sunlit
Object was in daylight at epoch
Visualization orbit readout
Latitude
Unknown
Longitude
Unknown
Altitude
Unknown
Speed
Unknown
Apparent Right ascension
Unknown
Apparent Declination
Unknown
Sunlit
N/A
Visualization observer readout
Local Sidereal Time
14:34:04
Azimuth
Unknown
Elevation
Unknown
Doppler factor
Unknown
Orbital elements
Apogee altitude
671.524 km
Perigee altitude
587.445 km
Semi-major axis
7,007.621 km
Eccentricity
0.006
Inclination
98.8869°
RAAN
280.8146°
Arg. of periapsis
196.9143°
True anomaly
163.20618°
Mean anomaly
163.0067°
Eccentric anomaly
163.10658°
Mean motion
3.69988 °/min
Orbital period
97.3 mins
BSTAR
0.00063672
Loading maneuver chart data...
Computing Atmospheric mass density...

Documentation

Showing up to 5 results
|